[TLELIST] Archives

 

[TLELIST] Current TLEs

December 5th 2024 PDT

HST 1 20580U 90037B 24339.50256006 .00012481 00000-0 52920-3 0 9996 2 20580 28.4694 281.0825 0002237 103.3937 256.6906 15.21555689702961 ISS (ZARYA) 1 25544U 98067A 24339.96087914 .00017466 00000-0 31067-3 0 9999 2 25544 51.6384 189.3216 0006992 302.6085 199.9978 15.50224944485037 CXO 1 25867U 99040B 24342.39125787 .00000678 00000-0 00000-0 0 9998 2 25867 45.0848 140.4320 8695375 304.8223 0.1385 0.37803356 15219 ...Continue Reading

[TLELIST] Current TLEs

December 4th 2024 PDT

HST 1 20580U 90037B 24339.50256006 .00012481 00000-0 52920-3 0 9996 2 20580 28.4694 281.0825 0002237 103.3937 256.6906 15.21555689703221 ISS (ZARYA) 1 25544U 98067A 24339.55581009 .00017410 00000-0 30986-3 0 9996 2 25544 51.6389 191.3284 0006976 301.1757 99.3335 15.50210297484970 CXO 1 25867U 99040B 24342.39125787 .00000678 00000-0 00000+0 0 9997 2 25867 45.0848 140.4320 8695375 304.8223 0.1385 0.37803356 26378 ...Continue Reading

[TLELIST] Current TLEs

December 3rd 2024 PDT

HST 1 20580U 90037B 24338.19073006 .00012482 00000-0 52979-3 0 9992 2 20580 28.4699 289.9224 0002270 89.0690 271.0164 15.21521152703022 ISS (ZARYA) 1 25544U 98067A 24338.73132801 .00017715 00000-0 31546-3 0 9998 2 25544 51.6389 195.4150 0006889 298.0521 178.2290 15.50182185484840 CXO 1 25867U 99040B 24337.10248963 .00000640 00000-0 00000+0 0 9991 2 25867 44.9628 140.7483 8701992 304.6886 0.0128 0.37806732 26354 ...Continue Reading

[TLELIST] Current TLEs

December 2nd 2024 PDT

HST 1 20580U 90037B 24337.27243123 .00013909 00000-0 59167-3 0 9990 2 20580 28.4700 296.1103 0002254 79.5547 280.5301 15.21498142702623 ISS (ZARYA) 1 25544U 98067A 24337.69815449 .00018847 00000-0 33543-3 0 9994 2 25544 51.6392 200.5348 0006936 293.3311 173.4353 15.50149230484682 CXO 1 25867U 99040B 24337.10248963 .00000640 00000-0 00000+0 0 9991 2 25867 44.9628 140.7483 8701992 304.6886 0.0128 0.37806732 26354 ...Continue Reading

[TLELIST] Current TLEs

December 1st 2024 PDT

ISS (ZARYA) 1 25544U 98067A 24336.59759280 .00020297 00000-0 36103-3 0 9999 2 25544 51.6397 205.9875 0006915 289.9483 151.1375 15.50113255484516 CXO 1 25867U 99040B 24337.10248963 .00000640 00000-0 00000+0 0 9991 2 25867 44.9628 140.7483 8701992 304.6886 0.0128 0.37806732 26354 ...Continue Reading

[TLELIST] Current TLEs

November 30th 2024 PDT

HST 1 20580U 90037B 24335.37019268 .00016195 00000-0 69120-3 0 9990 2 20580 28.4700 308.9275 0002173 60.0317 300.0492 15.21446246702330 ISS (ZARYA) 1 25544U 98067A 24335.69021678 .00021425 00000-0 38106-3 0 9991 2 25544 51.6399 210.4846 0006637 285.8831 128.4022 15.50080478484370 CXO 1 25867U 99040B 24337.10248963 .00000640 00000-0 00000+0 0 9991 2 25867 44.9628 140.7483 8701992 304.6886 0.0128 0.37806732 26354 ...Continue Reading

[TLELIST] Current TLEs

November 28th 2024 PDT

HST 1 20580U 90037B 24333.33668895 .00014422 00000-0 61580-3 0 9993 2 20580 28.4699 322.6291 0002098 37.3738 322.7001 15.21386830702023 ISS (ZARYA) 1 25544U 98067A 24333.69862481 .00023720 00000-0 42205-3 0 9999 2 25544 51.6394 220.3545 0006791 276.8222 176.7845 15.50000833484068 CXO 1 25867U 99040B 24334.45791181 .00000576 00000-0 00000-0 0 9990 2 25867 44.9190 140.8890 8705655 304.6221 359.9348 0.37810679 15188 ...Continue Reading

[TLELIST] Current TLEs

November 27th 2024 PDT

HST 1 20580U 90037B 24331.43430947 .00014151 00000-0 60502-3 0 9999 2 20580 28.4700 335.4459 0001950 14.3475 345.7174 15.21335899701735 ISS (ZARYA) 1 25544U 98067A 24331.87655469 .00024111 00000-0 43016-3 0 9999 2 25544 51.6385 229.3849 0006823 271.5434 88.4773 15.49914286483788 CXO 1 25867U 99040B 24334.45791181 .00000576 00000-0 00000-0 0 9990 2 25867 44.9190 140.8890 8705655 304.6221 359.9348 0.37810679 15188 ...Continue Reading

[TLELIST] Current TLEs

November 27th 2024 PDT

HST 1 20580U 90037B 24331.43430947 .00014151 00000-0 60502-3 0 9999 2 20580 28.4700 335.4459 0001950 14.3475 345.7174 15.21335899701735 ISS (ZARYA) 1 25544U 98067A 24331.87655469 .00024111 00000-0 43016-3 0 9999 2 25544 51.6385 229.3849 0006823 271.5434 88.4773 15.49914286483788 CXO 1 25867U 99040B 24334.45791181 .00000576 00000-0 00000-0 0 9990 2 25867 44.9190 140.8890 8705655 304.6221 359.9348 0.37810679 15188 ...Continue Reading

[TLELIST] Current TLEs

November 27th 2024 PDT

HST 1 20580U 90037B 24331.43430947 .00014151 00000-0 60502-3 0 9999 2 20580 28.4700 335.4459 0001950 14.3475 345.7174 15.21335899701735 ISS (ZARYA) 1 25544U 98067A 24331.87655469 .00024111 00000-0 43016-3 0 9999 2 25544 51.6385 229.3849 0006823 271.5434 88.4773 15.49914286483788 CXO 1 25867U 99040B 24334.45791181 .00000576 00000-0 00000-0 0 9990 2 25867 44.9190 140.8890 8705655 304.6221 359.9348 0.37810679 15188 ...Continue Reading
  • This mailing list is a public mailing list - anyone may join or leave, at any time.
  • This mailing list is announce-only.

International Space Station (ISS) / Hubble Space Telescope (HST) / Chandra X-Ray Observatory Orbital Data via EMAIL

Privacy Policy:

Private list